TimeCST,TemperatureF,Dew PointF,Humidity,Sea Level PressureIn,VisibilityMPH,Wind Direction,Wind SpeedMPH,Gust SpeedMPH,PrecipitationIn,Events,Conditions,WindDirDegrees,DateUTC
12:53 AM,19.0,15.1,85,30.72,10.0,Calm,Calm,-,N/A,,Clear,0,2013-11-13 06:53:00
1:53 AM,18.0,14.0,84,30.71,10.0,Calm,Calm,-,N/A,,Clear,0,2013-11-13 07:53:00
2:53 AM,18.0,14.0,84,30.72,10.0,Calm,Calm,-,N/A,,Clear,0,2013-11-13 08:53:00
3:53 AM,16.0,12.9,88,30.70,10.0,Calm,Calm,-,N/A,,Clear,0,2013-11-13 09:53:00
4:53 AM,17.1,15.1,92,30.68,10.0,Calm,Calm,-,N/A,,Clear,0,2013-11-13 10:53:00
5:53 AM,16.0,12.0,84,30.67,10.0,Calm,Calm,-,N/A,,Clear,0,2013-11-13 11:53:00
6:53 AM,18.0,14.0,84,30.66,10.0,Calm,Calm,-,N/A,,Clear,0,2013-11-13 12:53:00
7:53 AM,24.1,19.0,81,30.65,10.0,SE,3.5,-,N/A,,Clear,140,2013-11-13 13:53:00
8:53 AM,32.0,24.1,73,30.65,10.0,South,8.1,-,N/A,,Clear,180,2013-11-13 14:53:00
9:53 AM,37.0,19.9,50,30.63,10.0,South,11.5,-,N/A,,Clear,170,2013-11-13 15:53:00
10:53 AM,43.0,16.0,34,30.60,10.0,SSW,10.4,-,N/A,,Clear,200,2013-11-13 16:53:00
11:53 AM,48.0,16.0,28,30.56,10.0,South,9.2,-,N/A,,Clear,180,2013-11-13 17:53:00
12:53 PM,52.0,14.0,22,30.51,10.0,South,12.7,-,N/A,,Clear,180,2013-11-13 18:53:00
1:53 PM,53.1,10.9,19,30.46,10.0,South,11.5,19.6,N/A,,Clear,180,2013-11-13 19:53:00
2:53 PM,54.0,10.0,17,30.43,10.0,South,12.7,18.4,N/A,,Clear,190,2013-11-13 20:53:00
3:53 PM,53.1,12.0,20,30.40,10.0,South,12.7,-,N/A,,Clear,190,2013-11-13 21:53:00
4:53 PM,48.9,15.1,26,30.37,10.0,South,10.4,-,N/A,,Clear,170,2013-11-13 22:53:00
5:53 PM,42.1,17.1,37,30.36,10.0,South,8.1,-,N/A,,Clear,170,2013-11-13 23:53:00
6:53 PM,37.9,19.0,47,30.36,10.0,South,8.1,-,N/A,,Clear,180,2013-11-14 00:53:00
7:53 PM,37.0,19.9,50,30.35,10.0,South,9.2,-,N/A,,Clear,180,2013-11-14 01:53:00
8:53 PM,37.9,21.9,53,30.33,10.0,South,8.1,-,N/A,,Clear,180,2013-11-14 02:53:00
9:53 PM,39.0,23.0,53,30.32,10.0,South,10.4,-,N/A,,Clear,180,2013-11-14 03:53:00
10:53 PM,37.0,24.1,59,30.30,10.0,South,11.5,-,N/A,,Clear,180,2013-11-14 04:53:00
11:53 PM,37.0,24.1,59,30.27,10.0,South,11.5,-,N/A,,Clear,180,2013-11-14 05:53:00